Wind_Speed
12 10 9 8 8 7 7 6 7 8 9 8 5 4 3 3 3 4 5 4 5 3 4 5 4 3 1 1 2 3 4 2 3 6 4 3 3 0 3 5 1 2 7 6 31
13 12 11 10 9 8 7 8 7 9 8 10 6 2 3 3 3 7 5 8 5 4 7 6 3 4 2 0 2 4 4 7 2 2 3 3 4 5 3 3 1 2 4 20 34
18 15 12 11 10 9 8 8 7 8 10 9 6 2 2 1 1 4 11 7 5 6 6 5 2 3 2 2 2 3 4 3 1 1 1 2 3 5 6 4 7 8 7 14 19
20 19 15 13 11 10 10 9 8 9 9 9 5 2 1 1 3 1 6 7 5 6 6 5 2 4 3 4 4 3 4 3 2 1 1 2 3 2 6 7 3 9 16 15 15
21 20 18 14 12 11 10 10 9 9 9 8 5 2 2 0 6 4 6 6 6 7 6 4 4 4 3 3 4 3 1 1 2 1 2 2 3 5 7 8 3 7 9 14 13
18 22 21 16 14 12 10 10 10 9 9 9 5 3 3 3 3 7 6 7 5 6 4 3 4 4 1 2 3 4 1 2 3 2 1 1 2 2 6 6 8 9 13 12 12
19 22 21 19 15 13 12 10 9 9 9 10 4 3 2 8 5 7 7 5 6 3 2 2 0 2 1 2 0 2 3 4 4 4 2 3 6 9 7 4 3 9 9 11 12
19 22 21 20 16 13 12 10 9 8 9 6 4 3 6 4 8 9 9 6 6 4 2 1 0 1 1 1 4 2 3 2 2 6 2 4 7 6 7 6 9 7 8 8 11
17 21 23 19 17 15 12 10 8 7 5 4 3 3 6 6 6 12 12 8 9 6 3 4 2 2 3 4 4 4 2 4 5 6 3 3 6 5 4 3 4 7 7 8 8
22 16 24 18 19 14 12 10 6 6 3 3 3 0 3 5 6 13 11 13 4 5 4 3 4 3 2 3 5 6 4 4 4 4 1 2 10 9 9 5 8 9 8 7 8
21 14 24 21 19 13 9 4 3 1 4 7 7 3 5 7 9 6 9 9 4 4 5 1 4 8 11 7 2 5 3 1 1 0 3 6 7 12 11 7 9 9 9 9 9
21 25 23 21 18 14 10 4 3 2 4 13 4 3 5 7 4 3 12 6 5 6 6 4 7 7 3 4 5 1 0 3 2 1 3 4 10 10 8 6 5 5 4 6 6
18 29 22 22 19 15 15 14 8 4 2 4 7 6 5 7 5 10 9 3 4 7 8 7 5 5 8 4 6 4 5 4 4 1 1 2 7 6 4 10 13 13 7 10 7
19 26 12 23 16 15 12 24 15 3 4 6 6 7 6 7 3 6 16 5 3 9 10 5 5 6 7 5 5 4 4 3 4 4 3 2 3 3 4 9 12 11 11 9 10
17 23 30 34 13 16 15 17 16 3 1 5 3 4 4 9 8 3 5 2 7 7 7 8 8 7 4 6 7 5 3 3 3 4 3 2 4 5 3 6 8 9 9 9 8
18 20 21 29 17 18 25 25 12 4 9 4 4 7 8 3 3 5 4 2 3 4 3 3 0 5 6 3 3 9 7 8 5 3 2 5 6 4 1 4 1 4 8 9 10
21 21 20 24 19 23 28 13 4 6 2 6 6 7 7 7 5 5 8 9 8 6 5 1 2 1 4 6 4 5 7 2 3 2 6 2 3 2 3 5 5 6 6 8 9
24 25 21 20 28 33 19 7 5 8 8 4 5 10 7 6 3 6 7 10 6 3 4 7 4 9 5 7 9 7 8 6 8 5 4 1 5 2 4 6 6 6 5 7 10
26 25 14 23 20 33 11 14 11 7 9 9 6 6 5 5 6 5 7 7 10 10 7 7 4 2 2 2 7 6 5 5 6 2 3 3 3 2 4 5 5 6 7 8 8
22 11 23 23 28 22 15 15 7 6 7 9 7 6 10 13 8 11 11 6 6 11 3 7 4 2 1 1 2 4 6 4 1 6 5 5 4 4 13 9 6 6 7 7 7
14 4 13 29 33 11 17 13 6 5 4 6 7 6 6 9 8 7 9 2 8 10 11 6 4 1 4 6 9 3 3 2 5 5 6 4 5 3 15 12 10 7 6 6 6
3 4 7 38 8 7 14 16 6 4 2 3 4 4 7 9 6 6 10 2 4 7 14 4 5 4 6 3 3 4 6 6 5 5 2 3 4 3 13 11 11 9 7 5 6
3 3 7 13 8 9 10 12 2 6 4 3 4 1 3 7 6 5 6 2 3 4 15 8 3 4 4 4 1 6 5 4 4 3 6 6 3 2 7 8 7 10 7 6 6
2 3 1 2 2 18 16 16 20 2 2 4 3 4 4 3 1 7 3 2 2 3 2 3 3 6 9 5 5 6 8 7 5 3 4 4 7 7 7 10 8 7 7 7 6
2 2 3 3 3 6 14 13 18 6 2 3 2 4 7 4 3 6 3 3 5 5 3 3 4 3 2 4 4 4 5 9 12 6 6 6 10 17 16 13 11 9 8 7 6
2 2 1 1 3 5 11 10 22 8 6 3 3 2 2 6 3 7 7 4 4 4 3 3 3 2 0 2 4 3 3 6 4 4 3 9 4 6 9 7 8 9 9 7 6
6 4 3 3 2 5 5 8 11 14 0 2 7 6 5 6 8 7 9 10 2 8 3 3 5 3 3 2 4 5 6 7 5 2 4 7 6 16 11 10 8 8 7 6 5
Wind_Direction
270 274 278 282 288 293 302 313 322 333 336 339 330 285 264 275 250 205 221 197 179 166 157 152 151 152 121 50 52 90 67 186 208 163 197 207 149 341 164 127 114 76 153 206 167
269 266 270 274 282 286 295 302 313 321 335 339 331 273 268 285 245 249 216 182 184 181 161 153 143 139 38 81 6 92 117 211 211 149 180 202 170 179 144 130 218 41 23 143 159
277 258 259 263 270 279 284 293 304 313 327 339 341 286 280 272 73 243 201 190 183 174 169 157 147 160 126 131 182 165 183 220 295 104 67 211 200 179 148 225 206 193 166 153 162
271 272 252 259 261 272 282 288 296 309 322 334 340 304 299 159 207 191 174 198 201 185 177 166 132 135 145 183 189 163 247 241 197 130 137 185 320 228 190 216 215 196 166 164 172
271 270 268 253 262 264 277 288 292 303 315 325 315 269 162 135 254 176 160 173 177 176 193 153 141 152 176 205 140 181 274 233 152 168 260 331 252 246 257 238 219 127 160 179 185
272 267 270 263 253 263 266 278 290 294 305 313 291 252 162 226 179 171 172 160 175 171 185 172 175 179 226 208 165 181 173 273 197 231 271 252 277 18 273 253 215 170 192 190 190
276 255 263 264 260 255 263 270 281 293 299 302 258 233 227 226 178 167 166 165 171 164 149 180 153 128 114 141 336 82 317 329 221 191 224 152 287 237 244 316 228 193 196 198 204
298 246 252 254 255 258 258 264 273 283 294 274 207 214 244 197 174 170 166 154 160 174 108 103 144 113 138 167 33 64 52 349 296 146 155 117 272 292 320 204 239 204 211 201 214
303 245 244 245 248 249 262 263 269 279 277 217 180 187 262 163 196 186 168 149 128 120 97 105 78 133 53 96 20 12 217 207 308 200 121 139 263 265 37 99 252 251 233 220 233
316 252 237 236 249 242 248 268 270 261 186 166 256 6 175 216 170 166 167 150 127 111 67 71 56 83 45 111 206 195 205 225 227 220 157 176 262 281 285 307 263 261 264 256 243
314 301 232 229 237 232 232 229 118 227 223 189 188 212 132 121 124 178 161 140 105 78 139 195 113 205 202 198 101 138 164 218 277 148 144 244 268 279 283 276 264 247 254 261 255
309 323 223 221 222 221 207 194 233 134 231 237 216 278 152 157 108 218 169 136 141 159 132 72 225 218 184 201 230 337 30 258 300 87 147 314 286 274 308 311 323 291 305 340 12
316 322 222 213 207 199 207 211 149 31 167 267 193 176 185 156 186 193 152 161 141 140 174 158 211 140 162 193 159 188 180 212 205 16 296 337 304 358 18 40 40 34 32 34 12
316 312 260 202 185 194 216 214 215 333 57 259 197 217 152 151 229 159 180 152 187 174 155 213 219 165 155 188 144 202 193 191 157 94 219 37 268 17 12 27 33 19 25 15 11
292 308 308 195 175 185 206 194 183 151 196 228 158 124 138 161 136 203 171 104 172 181 130 229 165 154 163 193 159 200 111 114 90 99 43 303 100 262 246 27 7 6 22 24 19
290 298 300 200 194 193 198 177 150 79 235 167 140 162 131 132 111 125 142 71 156 110 40 165 224 152 162 105 138 145 79 47 53 70 356 219 154 271 251 152 112 33 20 21 33
297 298 279 285 190 182 168 151 138 176 177 188 176 171 157 152 138 159 164 173 163 130 186 73 244 156 128 93 50 92 91 21 2 1 222 10 115 257 6 81 120 86 35 17 28
303 291 271 261 188 169 162 152 192 183 192 137 129 121 166 143 189 155 128 191 254 122 133 154 267 174 190 174 171 181 154 156 198 193 237 68 221 256 103 72 71 64 51 45 44
305 298 278 254 209 172 162 192 207 185 155 133 103 117 193 189 134 138 183 205 206 177 170 157 254 32 41 132 141 191 189 166 103 24 72 187 96 2 140 108 91 74 59 43 36
296 286 266 250 218 176 177 197 211 196 132 148 151 174 173 177 150 178 167 192 206 186 215 192 111 17 298 115 11 155 167 87 16 154 213 236 202 221 186 166 134 99 80 59 40
282 251 260 195 187 186 184 204 188 189 145 155 158 157 172 164 153 183 193 274 201 189 178 141 114 275 138 215 177 145 184 135 125 152 166 175 244 279 173 156 140 127 109 94 73
247 247 188 172 160 188 185 185 144 158 128 160 127 120 156 161 146 177 191 261 343 160 184 180 111 160 194 254 221 177 180 164 144 211 227 141 257 7 134 139 136 130 124 109 90
248 261 264 176 171 179 199 204 23 165 179 151 148 187 126 154 136 165 169 102 352 154 158 181 162 94 13 2 314 216 199 169 125 84 188 143 228 95 112 127 138 133 122 108 92
271 268 278 103 267 188 171 200 205 91 113 152 154 116 112 128 57 147 118 31 22 96 63 96 125 161 189 190 140 182 195 191 152 133 175 209 154 197 182 155 147 133 126 115 93
199 281 318 142 203 136 174 176 186 174 131 39 85 167 152 136 117 123 109 119 39 356 40 98 139 136 93 116 134 167 175 179 206 195 183 184 174 192 186 170 161 149 137 126 119
297 308 337 32 110 109 165 181 188 175 160 226 163 126 79 137 172 179 136 156 165 40 48 356 141 92 48 121 122 146 127 161 153 166 194 144 205 175 145 139 148 152 139 133 124
308 313 317 347 127 146 184 179 186 160 196 61 159 116 98 130 95 73 72 76 117 132 122 122 134 117 222 1 66 320 208 188 175 100 155 192 186 147 153 154 156 150 141 132 113
Height
799 799 799 798 797 797 797 795 794 793 791 789 787 786 785 786 786 786 785 783 784 785 785 787 788 789 789 790 790 794 820 824 806 810 801 791 794 790 789 793 792 793 797 794 800
796 796 796 796 795 795 795 794 793 792 790 788 786 784 784 784 785 784 781 781 782 784 785 786 788 789 794 792 795 805 824 812 793 793 797 792 793 793 795 796 796 796 794 794 799
794 792 793 793 792 793 792 792 791 790 789 787 785 783 783 784 784 779 779 781 782 783 784 785 786 788 793 793 795 801 812 797 793 791 791 792 793 791 796 801 796 796 796 797 800
790 791 788 789 789 790 790 790 789 789 787 786 784 783 782 784 790 776 778 780 781 783 784 785 786 792 796 798 792 800 794 794 792 792 792 794 794 793 795 790 783 785 788 794 797
786 788 788 785 786 787 787 787 787 786 785 783 783 783 783 785 780 776 777 779 780 782 784 784 788 790 797 795 793 796 793 790 791 792 793 793 795 795 792 784 784 786 791 793 794
781 784 785 782 782 784 783 784 784 783 783 782 782 782 782 787 775 776 777 778 780 782 784 785 786 786 790 791 795 792 792 792 792 793 794 797 797 794 783 780 784 787 790 791 793
776 779 780 780 779 780 781 781 781 781 781 781 781 782 780 777 774 775 777 778 780 782 783 785 785 787 788 792 789 792 798 796 795 794 796 796 802 799 783 780 781 786 786 789 789
772 773 775 776 776 776 777 778 778 778 778 778 779 782 780 773 773 774 776 778 779 782 783 785 786 787 788 788 793 798 803 811 795 796 795 798 808 786 782 784 785 785 786 787 788
767 766 771 772 772 773 775 775 776 775 776 777 779 780 778 773 773 771 773 776 778 781 784 784 787 791 792 805 815 810 818 814 801 798 798 801 802 787 782 782 785 786 785 786 786
761 760 765 765 772 770 772 774 773 773 774 777 778 782 775 771 769 770 773 774 777 781 786 787 796 805 808 813 830 814 815 808 806 798 799 806 807 795 788 788 787 786 786 786 785
757 756 760 762 767 767 770 773 774 774 770 765 765 765 764 767 769 771 772 774 777 782 794 792 806 810 802 801 794 799 801 802 796 796 802 807 809 800 788 789 788 786 786 785 781
751 750 753 757 761 765 765 767 762 762 766 758 761 762 762 763 771 772 772 775 779 790 791 800 807 794 792 798 800 799 801 806 802 799 802 805 806 797 793 791 788 783 785 787 787
749 743 746 752 758 760 760 760 759 760 765 756 753 758 760 762 765 770 771 774 778 786 790 798 786 782 793 793 801 802 808 807 805 803 803 806 811 804 798 799 795 794 796 793 793
743 743 741 748 755 753 758 753 757 760 781 764 754 751 755 757 764 761 765 770 776 784 789 788 779 780 790 793 795 803 796 799 804 820 831 811 833 808 806 811 806 806 804 803 798
740 738 738 738 741 747 748 750 754 760 802 749 749 746 747 754 758 765 764 766 776 777 782 783 783 784 787 787 788 798 795 802 807 825 827 820 842 814 806 814 818 816 810 806 802
737 734 734 729 736 737 742 747 752 779 792 751 747 748 751 754 758 763 765 764 767 772 775 779 775 776 779 787 785 797 805 818 831 840 852 818 822 818 811 813 818 818 818 813 807
732 728 731 726 724 729 735 744 763 779 737 748 748 746 744 755 761 760 765 770 774 788 790 785 782 779 779 790 791 797 812 854 855 869 836 819 823 817 820 819 820 821 821 819 814
730 724 724 719 722 723 730 741 756 734 735 731 737 743 748 748 756 759 765 768 765 766 788 798 804 785 777 778 789 800 802 832 844 848 826 816 824 817 821 824 824 825 824 822 819
720 716 712 707 711 716 726 737 719 727 715 728 737 745 747 744 750 755 761 758 752 758 765 785 781 778 776 775 777 798 804 796 819 823 836 822 822 821 823 825 827 828 828 828 826
724 715 701 700 708 711 718 715 713 706 707 714 725 731 739 738 744 748 756 744 747 745 747 762 781 781 781 776 780 783 785 807 818 830 821 818 819 814 819 824 827 829 831 831 831
714 708 686 690 701 702 702 708 707 699 697 707 712 725 726 730 735 742 745 736 735 742 745 756 766 788 783 782 782 788 788 789 796 813 821 819 806 798 801 817 824 828 831 832 832
713 703 683 682 688 695 695 687 693 698 695 698 699 705 717 724 731 736 737 736 742 736 744 747 772 791 782 775 775 775 779 783 797 795 819 821 808 807 808 815 821 827 830 832 833
710 700 685 676 685 697 689 696 698 696 698 699 700 698 703 716 726 727 730 741 742 736 737 742 765 798 785 782 777 779 775 772 777 788 798 810 803 816 818 822 823 826 830 832 833
710 691 684 679 686 680 688 696 701 698 695 696 699 699 703 711 710 727 737 742 742 742 741 736 754 760 762 759 766 774 771 770 771 795 786 788 821 823 823 822 825 827 830 833 834
704 692 690 676 688 681 683 696 700 703 706 705 704 703 706 718 715 727 741 743 743 745 745 742 754 752 753 754 758 760 761 767 767 769 778 778 793 804 811 815 819 822 828 833 836
701 696 691 686 683 684 686 693 691 705 702 707 715 725 727 721 726 728 734 735 735 749 751 755 768 768 769 755 754 755 757 765 766 768 768 780 788 795 809 816 820 822 826 832 835
702 696 693 687 688 685 685 683 687 695 714 713 716 722 729 734 735 741 744 747 749 745 763 762 768 772 774 774 778 781 769 762 761 766 766 773 778 795 808 812 819 822 826 830 833